Year,Month,Day,Hour,Minute,Value (Times are PST for temperature in C)
2015,03,16,00,00,6.90
2015,03,16,00,01,6.90
2015,03,16,00,02,6.90
2015,03,16,00,03,6.90
2015,03,16,00,04,6.90
2015,03,16,00,05,6.90
2015,03,16,00,06,6.90
2015,03,16,00,07,6.90
2015,03,16,00,08,6.90
2015,03,16,00,09,6.90
2015,03,16,00,10,6.90
2015,03,16,00,11,6.90
2015,03,16,00,12,6.90
2015,03,16,00,13,6.90
2015,03,16,00,14,6.90
2015,03,16,00,15,6.90
2015,03,16,00,16,6.90
2015,03,16,00,17,6.80
2015,03,16,00,18,6.80
2015,03,16,00,19,6.80
2015,03,16,00,20,6.80
2015,03,16,00,21,6.80
2015,03,16,00,22,6.80
2015,03,16,00,23,6.80
2015,03,16,00,24,6.80
2015,03,16,00,25,6.80
2015,03,16,00,26,6.80
2015,03,16,00,27,6.80
2015,03,16,00,28,6.80
2015,03,16,00,29,6.80
2015,03,16,00,30,6.80
2015,03,16,00,31,6.80
2015,03,16,00,32,6.80
2015,03,16,00,33,6.80
2015,03,16,00,34,6.80
2015,03,16,00,35,6.80
2015,03,16,00,36,6.80
2015,03,16,00,37,6.80
2015,03,16,00,38,6.80
2015,03,16,00,39,6.80
2015,03,16,00,40,6.80
2015,03,16,00,41,6.80
2015,03,16,00,42,6.80
2015,03,16,00,43,6.80
2015,03,16,00,44,6.90
2015,03,16,00,45,6.90
2015,03,16,00,46,6.90
2015,03,16,00,47,6.90
2015,03,16,00,48,6.90
2015,03,16,00,49,6.90
2015,03,16,00,50,6.90
2015,03,16,00,51,6.90
2015,03,16,00,52,6.90
2015,03,16,00,53,6.90
2015,03,16,00,54,6.90
2015,03,16,00,55,6.90
2015,03,16,00,56,6.80
2015,03,16,00,57,6.90
2015,03,16,00,58,6.90
2015,03,16,00,59,6.90
2015,03,16,01,00,6.90
2015,03,16,01,01,6.90
2015,03,16,01,02,6.90
2015,03,16,01,03,6.90
2015,03,16,01,04,6.90
2015,03,16,01,05,6.90
2015,03,16,01,06,6.90
2015,03,16,01,07,6.90
2015,03,16,01,08,7.00
2015,03,16,01,09,7.00
2015,03,16,01,10,7.00
2015,03,16,01,11,7.00
2015,03,16,01,12,7.00
2015,03,16,01,13,7.00
2015,03,16,01,14,7.10
2015,03,16,01,15,7.10
2015,03,16,01,16,7.10
2015,03,16,01,17,7.10
2015,03,16,01,18,7.10
2015,03,16,01,19,7.10
2015,03,16,01,20,7.10
2015,03,16,01,21,7.10
2015,03,16,01,22,7.10
2015,03,16,01,23,7.10
2015,03,16,01,24,7.10
2015,03,16,01,25,7.10
2015,03,16,01,26,7.10
2015,03,16,01,27,7.10
2015,03,16,01,28,7.10
2015,03,16,01,29,7.10
2015,03,16,01,30,7.00
2015,03,16,01,31,7.00
2015,03,16,01,32,7.00
2015,03,16,01,33,7.00
2015,03,16,01,34,7.00
2015,03,16,01,35,7.00
2015,03,16,01,36,7.00
2015,03,16,01,37,7.00
2015,03,16,01,38,7.00
2015,03,16,01,39,7.00
2015,03,16,01,40,7.00
2015,03,16,01,41,7.00
2015,03,16,01,42,7.00
2015,03,16,01,43,7.00
2015,03,16,01,44,7.00
2015,03,16,01,45,7.00
2015,03,16,01,46,7.00
2015,03,16,01,47,7.00
2015,03,16,01,48,6.90
2015,03,16,01,49,6.90
2015,03,16,01,50,6.90
2015,03,16,01,51,6.90
2015,03,16,01,52,6.90
2015,03,16,01,53,6.90
2015,03,16,01,54,6.90
2015,03,16,01,55,6.90
2015,03,16,01,56,6.90
2015,03,16,01,57,6.90
2015,03,16,01,58,6.90
2015,03,16,01,59,6.90
2015,03,16,02,00,6.80
2015,03,16,02,01,6.80
2015,03,16,02,02,6.80
2015,03,16,02,03,6.70
2015,03,16,02,04,6.70
2015,03,16,02,05,6.70
2015,03,16,02,06,6.70
2015,03,16,02,07,6.70
2015,03,16,02,08,6.60
2015,03,16,02,09,6.60
2015,03,16,02,10,6.60
2015,03,16,02,11,6.50
2015,03,16,02,12,6.50
2015,03,16,02,13,6.50
2015,03,16,02,14,6.40
2015,03,16,02,15,6.40
2015,03,16,02,16,6.40
2015,03,16,02,17,6.40
2015,03,16,02,18,6.30
2015,03,16,02,19,6.30
2015,03,16,02,20,6.30
2015,03,16,02,21,6.20
2015,03,16,02,22,6.20
2015,03,16,02,23,6.20
2015,03,16,02,24,6.10
2015,03,16,02,25,6.00
2015,03,16,02,26,6.00
2015,03,16,02,27,5.90
2015,03,16,02,28,5.90
2015,03,16,02,29,5.90
2015,03,16,02,30,5.80
2015,03,16,02,31,5.80
2015,03,16,02,32,5.80
2015,03,16,02,33,5.80
2015,03,16,02,34,5.70
2015,03,16,02,35,5.70
2015,03,16,02,36,5.60
2015,03,16,02,37,5.60
2015,03,16,02,38,5.60
2015,03,16,02,39,5.60
2015,03,16,02,40,5.50
2015,03,16,02,41,5.50
2015,03,16,02,42,5.50
2015,03,16,02,43,5.50
2015,03,16,02,44,5.40
2015,03,16,02,45,5.40
2015,03,16,02,46,5.40
2015,03,16,02,47,5.30
2015,03,16,02,48,5.30
2015,03,16,02,49,5.20
2015,03,16,02,50,5.20
2015,03,16,02,51,5.20
2015,03,16,02,52,5.20
2015,03,16,02,53,5.20
2015,03,16,02,54,5.10
2015,03,16,02,55,5.10
2015,03,16,02,56,5.10
2015,03,16,02,57,5.10
2015,03,16,02,58,5.10
2015,03,16,02,59,5.10
2015,03,16,03,00,5.10
2015,03,16,03,01,5.10
2015,03,16,03,02,5.10
2015,03,16,03,03,5.10
2015,03,16,03,04,5.00
2015,03,16,03,05,5.00
2015,03,16,03,06,5.00
2015,03,16,03,07,5.00
2015,03,16,03,08,5.00
2015,03,16,03,09,5.10
2015,03,16,03,10,5.00
2015,03,16,03,11,5.00
2015,03,16,03,12,5.00
2015,03,16,03,13,5.00
2015,03,16,03,14,5.00
2015,03,16,03,15,5.00
2015,03,16,03,16,5.00
2015,03,16,03,17,5.00
2015,03,16,03,18,5.00
2015,03,16,03,19,5.00
2015,03,16,03,20,5.00
2015,03,16,03,21,5.00
2015,03,16,03,22,5.00
2015,03,16,03,23,5.00
2015,03,16,03,24,5.00
2015,03,16,03,25,5.00
2015,03,16,03,26,5.00
2015,03,16,03,27,5.00
2015,03,16,03,28,5.00
2015,03,16,03,29,4.90
2015,03,16,03,30,4.90
2015,03,16,03,31,4.90
2015,03,16,03,32,4.90
2015,03,16,03,33,4.80
2015,03,16,03,34,4.80
2015,03,16,03,35,4.80
2015,03,16,03,36,4.80
2015,03,16,03,37,4.70
2015,03,16,03,38,4.70
2015,03,16,03,39,4.70
2015,03,16,03,40,4.70
2015,03,16,03,41,4.70
2015,03,16,03,42,4.70
2015,03,16,03,43,4.70
2015,03,16,03,44,4.60
2015,03,16,03,45,4.60
2015,03,16,03,46,4.60
2015,03,16,03,47,4.60
2015,03,16,03,48,4.60
2015,03,16,03,49,4.60
2015,03,16,03,50,4.60
2015,03,16,03,51,4.50
2015,03,16,03,52,4.50
2015,03,16,03,53,4.50
2015,03,16,03,54,4.50
2015,03,16,03,55,4.50
2015,03,16,03,56,4.50
2015,03,16,03,57,4.50
2015,03,16,03,58,4.50
2015,03,16,03,59,4.40
2015,03,16,04,00,4.40
2015,03,16,04,01,4.40
2015,03,16,04,02,4.40
2015,03,16,04,03,4.40
2015,03,16,04,04,4.40
2015,03,16,04,05,4.30
2015,03,16,04,06,4.30
2015,03,16,04,07,4.30
2015,03,16,04,08,4.30
2015,03,16,04,09,4.20
2015,03,16,04,10,4.20
2015,03,16,04,11,4.20
2015,03,16,04,12,4.10
2015,03,16,04,13,4.10
2015,03,16,04,14,4.10
2015,03,16,04,15,4.10
2015,03,16,04,16,4.10
2015,03,16,04,17,4.10
2015,03,16,04,18,4.10
2015,03,16,04,19,4.10
2015,03,16,04,20,4.10
2015,03,16,04,21,4.10
2015,03,16,04,22,4.10
2015,03,16,04,23,4.10
2015,03,16,04,24,4.10
2015,03,16,04,25,4.10
2015,03,16,04,26,4.10
2015,03,16,04,27,4.00
2015,03,16,04,28,4.00
2015,03,16,04,29,4.00
2015,03,16,04,30,4.00
2015,03,16,04,31,4.00
2015,03,16,04,32,3.90
2015,03,16,04,33,3.90
2015,03,16,04,34,3.90
2015,03,16,04,35,3.90
2015,03,16,04,36,3.80
2015,03,16,04,37,3.80
2015,03,16,04,38,3.80
2015,03,16,04,39,3.80
2015,03,16,04,40,3.80
2015,03,16,04,41,3.80
2015,03,16,04,42,3.80
2015,03,16,04,43,3.80
2015,03,16,04,44,3.80
2015,03,16,04,45,3.80
2015,03,16,04,46,3.80
2015,03,16,04,47,3.80
2015,03,16,04,48,3.70
2015,03,16,04,49,3.70
2015,03,16,04,50,3.70
2015,03,16,04,51,3.70
2015,03,16,04,52,3.70
2015,03,16,04,53,3.70
2015,03,16,04,54,3.70
2015,03,16,04,55,3.70
2015,03,16,04,56,3.70
2015,03,16,04,57,3.70
2015,03,16,04,58,3.70
2015,03,16,04,59,3.70
2015,03,16,05,00,3.70
2015,03,16,05,01,3.60
2015,03,16,05,02,3.60
2015,03,16,05,03,3.60
2015,03,16,05,04,3.60
2015,03,16,05,05,3.60
2015,03,16,05,06,3.50
2015,03,16,05,07,3.50
2015,03,16,05,08,3.50
2015,03,16,05,09,3.40
2015,03,16,05,10,3.40
2015,03,16,05,11,3.40
2015,03,16,05,12,3.40
2015,03,16,05,13,3.30
2015,03,16,05,14,3.30
2015,03,16,05,15,3.30
2015,03,16,05,16,3.30
2015,03,16,05,17,3.30
2015,03,16,05,18,3.30
2015,03,16,05,19,3.30
2015,03,16,05,20,3.40
2015,03,16,05,21,3.40
2015,03,16,05,22,3.40
2015,03,16,05,23,3.40
2015,03,16,05,24,3.40
2015,03,16,05,25,3.40
2015,03,16,05,26,3.50
2015,03,16,05,27,3.50
2015,03,16,05,28,3.50
2015,03,16,05,29,3.40
2015,03,16,05,30,3.40
2015,03,16,05,31,3.40
2015,03,16,05,32,3.40
2015,03,16,05,33,3.40
2015,03,16,05,34,3.40
2015,03,16,05,35,3.40
2015,03,16,05,36,3.30
2015,03,16,05,37,3.30
2015,03,16,05,38,3.30
2015,03,16,05,39,3.30
2015,03,16,05,40,3.20
2015,03,16,05,41,3.20
2015,03,16,05,42,3.20
2015,03,16,05,43,3.20
2015,03,16,05,44,3.10
2015,03,16,05,45,3.10
2015,03,16,05,46,3.10
2015,03,16,05,47,3.10
2015,03,16,05,48,3.00
2015,03,16,05,49,3.00
2015,03,16,05,50,2.90
2015,03,16,05,51,2.90
2015,03,16,05,52,2.90
2015,03,16,05,53,2.90
2015,03,16,05,54,3.00
2015,03,16,05,55,3.00
2015,03,16,05,56,3.10
2015,03,16,05,57,3.10
2015,03,16,05,58,3.20
2015,03,16,05,59,3.20
2015,03,16,06,00,3.20
2015,03,16,06,01,3.20
2015,03,16,06,02,3.20
2015,03,16,06,03,3.10
2015,03,16,06,04,3.10
2015,03,16,06,05,3.00
2015,03,16,06,06,3.00
2015,03,16,06,07,2.90
2015,03,16,06,08,2.90
2015,03,16,06,09,2.80
2015,03,16,06,10,2.80
2015,03,16,06,11,2.70
2015,03,16,06,12,2.70
2015,03,16,06,13,2.70
2015,03,16,06,14,2.60
2015,03,16,06,15,2.60
2015,03,16,06,16,2.60
2015,03,16,06,17,2.60
2015,03,16,06,18,2.60
2015,03,16,06,19,2.60
2015,03,16,06,20,2.60
2015,03,16,06,21,2.50
2015,03,16,06,22,2.60
2015,03,16,06,23,2.60
2015,03,16,06,24,2.60
2015,03,16,06,25,2.60
2015,03,16,06,26,2.60
2015,03,16,06,27,2.60
2015,03,16,06,28,2.60
2015,03,16,06,29,2.60
2015,03,16,06,30,2.60
2015,03,16,06,31,2.60
2015,03,16,06,32,2.60
2015,03,16,06,33,2.50
2015,03,16,06,34,2.50
2015,03,16,06,35,2.50
2015,03,16,06,36,2.40
2015,03,16,06,37,2.40
2015,03,16,06,38,2.30
2015,03,16,06,39,2.30
2015,03,16,06,40,2.30
2015,03,16,06,41,2.20
2015,03,16,06,42,2.20
2015,03,16,06,43,2.30
2015,03,16,06,44,2.30
2015,03,16,06,45,2.30
2015,03,16,06,46,2.30
2015,03,16,06,47,2.40
2015,03,16,06,48,2.40
2015,03,16,06,49,2.40
2015,03,16,06,50,2.40
2015,03,16,06,51,2.40
2015,03,16,06,52,2.40
2015,03,16,06,53,2.40
2015,03,16,06,54,2.30
2015,03,16,06,55,2.30
2015,03,16,06,56,2.30
2015,03,16,06,57,2.30
2015,03,16,06,58,2.30
2015,03,16,06,59,2.30
2015,03,16,07,00,2.30
2015,03,16,07,01,2.30
2015,03,16,07,02,2.30
2015,03,16,07,03,2.30
2015,03,16,07,04,2.30
2015,03,16,07,05,2.30
2015,03,16,07,06,2.30
2015,03,16,07,07,2.30
2015,03,16,07,08,2.30
2015,03,16,07,09,2.30
2015,03,16,07,10,2.30
2015,03,16,07,11,2.30
2015,03,16,07,12,2.30
2015,03,16,07,13,2.40
2015,03,16,07,14,2.40
2015,03,16,07,15,2.40
2015,03,16,07,16,2.40
2015,03,16,07,17,2.40
2015,03,16,07,18,2.50
2015,03,16,07,19,2.50
2015,03,16,07,20,2.50
2015,03,16,07,21,2.50
2015,03,16,07,22,2.50
2015,03,16,07,23,2.60
2015,03,16,07,24,2.60
2015,03,16,07,25,2.60
2015,03,16,07,26,2.60
2015,03,16,07,27,2.60
2015,03,16,07,28,2.60
2015,03,16,07,29,2.60
2015,03,16,07,30,2.60
2015,03,16,07,31,2.60
2015,03,16,07,32,2.60
2015,03,16,07,33,2.60
2015,03,16,07,34,2.60
2015,03,16,07,35,2.60
2015,03,16,07,36,2.60
2015,03,16,07,37,2.60
2015,03,16,07,38,2.60
2015,03,16,07,39,2.60
2015,03,16,07,40,2.60
2015,03,16,07,41,2.70
2015,03,16,07,42,2.70
2015,03,16,07,43,2.70
2015,03,16,07,44,2.70
2015,03,16,07,45,2.70
2015,03,16,07,46,2.60
2015,03,16,07,47,2.60
2015,03,16,07,48,2.60
2015,03,16,07,49,2.60
2015,03,16,07,50,2.60
2015,03,16,07,51,2.60
2015,03,16,07,52,2.60
2015,03,16,07,53,2.60
2015,03,16,07,54,2.60
2015,03,16,07,55,2.60
2015,03,16,07,56,2.70
2015,03,16,07,57,2.70
2015,03,16,07,58,2.70
2015,03,16,07,59,2.80
2015,03,16,08,00,2.80
2015,03,16,08,01,2.80
2015,03,16,08,02,2.90
2015,03,16,08,03,2.90
2015,03,16,08,04,2.90
2015,03,16,08,05,3.00
2015,03,16,08,06,3.00
2015,03,16,08,07,3.10
2015,03,16,08,08,3.10
2015,03,16,08,09,3.10
2015,03,16,08,10,3.20
2015,03,16,08,11,3.20
2015,03,16,08,12,3.20
2015,03,16,08,13,3.30
2015,03,16,08,14,3.30
2015,03,16,08,15,3.30
2015,03,16,08,16,3.30
2015,03,16,08,17,3.40
2015,03,16,08,18,3.40
2015,03,16,08,19,3.50
2015,03,16,08,20,3.50
2015,03,16,08,21,3.60
2015,03,16,08,22,3.60
2015,03,16,08,23,3.70
2015,03,16,08,24,3.70
2015,03,16,08,25,3.70
2015,03,16,08,26,3.70
2015,03,16,08,27,3.80
2015,03,16,08,28,3.80
2015,03,16,08,29,3.80
2015,03,16,08,30,3.80
2015,03,16,08,31,3.90
2015,03,16,08,32,3.90
2015,03,16,08,33,4.00
2015,03,16,08,34,4.10
2015,03,16,08,35,4.20
2015,03,16,08,36,4.20
2015,03,16,08,37,4.30
2015,03,16,08,38,4.40
2015,03,16,08,39,4.40
2015,03,16,08,40,4.50
2015,03,16,08,41,4.60
2015,03,16,08,42,4.60
2015,03,16,08,43,4.70
2015,03,16,08,44,4.80
2015,03,16,08,45,4.90
2015,03,16,08,46,5.00
2015,03,16,08,47,5.10
2015,03,16,08,48,5.20
2015,03,16,08,49,5.30
2015,03,16,08,50,5.30
2015,03,16,08,51,5.40
2015,03,16,08,52,5.50
2015,03,16,08,53,5.60
2015,03,16,08,54,5.70
2015,03,16,08,55,5.80
2015,03,16,08,56,5.90
2015,03,16,08,57,6.00
2015,03,16,08,58,6.10
2015,03,16,08,59,6.20
2015,03,16,09,00,6.30
2015,03,16,09,01,6.40
2015,03,16,09,02,6.50
2015,03,16,09,03,6.50
2015,03,16,09,04,6.60
2015,03,16,09,05,6.60
2015,03,16,09,06,6.70
2015,03,16,09,07,6.80
2015,03,16,09,08,6.80
2015,03,16,09,09,6.90
2015,03,16,09,10,6.90
2015,03,16,09,11,7.00
2015,03,16,09,12,7.10
2015,03,16,09,13,7.10
2015,03,16,09,14,7.20
2015,03,16,09,15,7.20
2015,03,16,09,16,7.20
2015,03,16,09,17,7.20
2015,03,16,09,18,7.20
2015,03,16,09,19,7.30
2015,03,16,09,20,7.40
2015,03,16,09,21,7.40
2015,03,16,09,22,7.40
2015,03,16,09,23,7.40
2015,03,16,09,24,7.50
2015,03,16,09,25,7.60
2015,03,16,09,26,7.70
2015,03,16,09,27,7.70
2015,03,16,09,28,7.80
2015,03,16,09,29,7.80
2015,03,16,09,30,7.90
2015,03,16,09,31,8.00
2015,03,16,09,32,8.10
2015,03,16,09,33,8.10
2015,03,16,09,34,8.20
2015,03,16,09,35,8.20
2015,03,16,09,36,8.30
2015,03,16,09,37,8.30
2015,03,16,09,38,8.30
2015,03,16,09,39,8.30
2015,03,16,09,40,8.30
2015,03,16,09,41,8.30
2015,03,16,09,42,8.40
2015,03,16,09,43,8.40
2015,03,16,09,44,8.40
2015,03,16,09,45,8.40
2015,03,16,09,46,8.40
2015,03,16,09,47,8.40
2015,03,16,09,48,8.40
2015,03,16,09,49,8.40
2015,03,16,09,50,8.40
2015,03,16,09,51,8.40
2015,03,16,09,52,8.40
2015,03,16,09,53,8.40
2015,03,16,09,54,8.40
2015,03,16,09,55,8.40
2015,03,16,09,56,8.40
2015,03,16,09,57,8.40
2015,03,16,09,58,8.40
2015,03,16,09,59,8.50
2015,03,16,10,00,8.50
2015,03,16,10,01,8.60
2015,03,16,10,02,8.70
2015,03,16,10,03,8.70
2015,03,16,10,04,8.80
2015,03,16,10,05,8.80
2015,03,16,10,06,8.80
2015,03,16,10,07,8.80
2015,03,16,10,08,8.90
2015,03,16,10,09,8.90
2015,03,16,10,10,8.90
2015,03,16,10,11,8.90
2015,03,16,10,12,8.90
2015,03,16,10,13,8.90
2015,03,16,10,14,8.90
2015,03,16,10,15,8.90
2015,03,16,10,16,8.80
2015,03,16,10,17,8.80
2015,03,16,10,18,8.80
2015,03,16,10,19,8.90
2015,03,16,10,20,8.90
2015,03,16,10,21,8.90
2015,03,16,10,22,8.90
2015,03,16,10,23,9.00
2015,03,16,10,24,9.00
2015,03,16,10,25,9.10
2015,03,16,10,26,9.10
2015,03,16,10,27,9.20
2015,03,16,10,28,9.20
2015,03,16,10,29,9.20
2015,03,16,10,30,9.20
2015,03,16,10,31,9.20
2015,03,16,10,32,9.10
2015,03,16,10,33,9.10
2015,03,16,10,34,9.00
2015,03,16,10,35,9.00
2015,03,16,10,36,9.00
2015,03,16,10,37,9.00
2015,03,16,10,38,9.10
2015,03,16,10,39,9.10
2015,03,16,10,40,9.10
2015,03,16,10,41,9.20
2015,03,16,10,42,9.20
2015,03,16,10,43,9.20
2015,03,16,10,44,9.20
2015,03,16,10,45,9.20
2015,03,16,10,46,9.20
2015,03,16,10,47,9.20
2015,03,16,10,48,9.30
2015,03,16,10,49,9.30
2015,03,16,10,50,9.30
2015,03,16,10,51,9.30
2015,03,16,10,52,9.30
2015,03,16,10,53,9.30
2015,03,16,10,54,9.30
2015,03,16,10,55,9.30
2015,03,16,10,56,9.30
2015,03,16,10,57,9.30
2015,03,16,10,58,9.40
2015,03,16,10,59,9.40
2015,03,16,11,00,9.40
2015,03,16,11,01,9.40
2015,03,16,11,02,9.40
2015,03,16,11,03,9.40
2015,03,16,11,04,9.50
2015,03,16,11,05,9.50
2015,03,16,11,06,9.50
2015,03,16,11,07,9.50
2015,03,16,11,08,9.50
2015,03,16,11,09,9.40
2015,03,16,11,10,9.40
2015,03,16,11,11,9.50
2015,03,16,11,12,9.60
2015,03,16,11,13,9.60
2015,03,16,11,14,9.60
2015,03,16,11,15,9.70
2015,03,16,11,16,9.70
2015,03,16,11,17,9.60
2015,03,16,11,18,9.60
2015,03,16,11,19,9.50
2015,03,16,11,20,9.40
2015,03,16,11,21,9.40
2015,03,16,11,22,9.50
2015,03,16,11,23,9.50
2015,03,16,11,24,9.50
2015,03,16,11,25,9.60
2015,03,16,11,26,9.60
2015,03,16,11,27,9.50
2015,03,16,11,28,9.50
2015,03,16,11,29,9.50
2015,03,16,11,30,9.40
2015,03,16,11,31,9.50
2015,03,16,11,32,9.40
2015,03,16,11,33,9.50
2015,03,16,11,34,9.40
2015,03,16,11,35,9.40
2015,03,16,11,36,9.40
2015,03,16,11,37,9.40
2015,03,16,11,38,9.40
2015,03,16,11,39,9.40
2015,03,16,11,40,9.40
2015,03,16,11,41,9.40
2015,03,16,11,42,9.40
2015,03,16,11,43,9.40
2015,03,16,11,44,9.30
2015,03,16,11,45,9.30
2015,03,16,11,46,9.40
2015,03,16,11,47,9.40
2015,03,16,11,48,9.40
2015,03,16,11,49,9.40
2015,03,16,11,50,9.40
2015,03,16,11,51,9.40
2015,03,16,11,52,9.40
2015,03,16,11,53,9.40
2015,03,16,11,54,9.40
2015,03,16,11,55,9.40
2015,03,16,11,56,9.40
2015,03,16,11,57,9.50
2015,03,16,11,58,9.50
2015,03,16,11,59,9.50
2015,03,16,12,00,9.50
2015,03,16,12,01,9.60
2015,03,16,12,02,9.60
2015,03,16,12,03,9.70
2015,03,16,12,04,9.70
2015,03,16,12,05,9.80
2015,03,16,12,06,9.80
2015,03,16,12,07,9.90
2015,03,16,12,08,10.00
2015,03,16,12,09,10.10
2015,03,16,12,10,10.20
2015,03,16,12,11,10.20
2015,03,16,12,12,10.20
2015,03,16,12,13,10.20
2015,03,16,12,14,10.20
2015,03,16,12,15,10.10
2015,03,16,12,16,10.10
2015,03,16,12,17,10.10
2015,03,16,12,18,10.00
2015,03,16,12,19,10.00
2015,03,16,12,20,10.00
2015,03,16,12,21,9.90
2015,03,16,12,22,9.80
2015,03,16,12,23,9.80
2015,03,16,12,24,9.80
2015,03,16,12,25,9.80
2015,03,16,12,26,9.80
2015,03,16,12,27,9.80
2015,03,16,12,28,9.90
2015,03,16,12,29,9.90
2015,03,16,12,30,9.90
2015,03,16,12,31,9.90
2015,03,16,12,32,10.00
2015,03,16,12,33,10.10
2015,03,16,12,34,10.10
2015,03,16,12,35,10.10
2015,03,16,12,36,10.20
2015,03,16,12,37,10.20
2015,03,16,12,38,10.30
2015,03,16,12,39,10.30
2015,03,16,12,40,10.30
2015,03,16,12,41,10.40
2015,03,16,12,42,10.40
2015,03,16,12,43,10.40
2015,03,16,12,44,10.40
2015,03,16,12,45,10.40
2015,03,16,12,46,10.30
2015,03,16,12,47,10.30
2015,03,16,12,48,10.30
2015,03,16,12,49,10.20
2015,03,16,12,50,10.20
2015,03,16,12,51,10.10
2015,03,16,12,52,10.10
2015,03,16,12,53,10.10
2015,03,16,12,54,10.10
2015,03,16,12,55,10.10
2015,03,16,12,56,10.10
2015,03,16,12,57,10.10
2015,03,16,12,58,10.20
2015,03,16,12,59,10.20
2015,03,16,13,00,10.30
2015,03,16,13,01,10.40
2015,03,16,13,02,10.40
2015,03,16,13,03,10.40
2015,03,16,13,04,10.40
2015,03,16,13,05,10.40
2015,03,16,13,06,10.30
2015,03,16,13,07,10.30
2015,03,16,13,08,10.30
2015,03,16,13,09,10.30
2015,03,16,13,10,10.30
2015,03,16,13,11,10.30
2015,03,16,13,12,10.30
2015,03,16,13,13,10.40
2015,03,16,13,14,10.40
2015,03,16,13,15,10.40
2015,03,16,13,16,10.40
2015,03,16,13,17,10.40
2015,03,16,13,18,10.40
2015,03,16,13,19,10.30
2015,03,16,13,20,10.30
2015,03,16,13,21,10.30
2015,03,16,13,22,10.40
2015,03,16,13,23,10.40
2015,03,16,13,24,10.40
2015,03,16,13,25,10.40
2015,03,16,13,26,10.40
2015,03,16,13,27,10.50
2015,03,16,13,28,10.50
2015,03,16,13,29,10.50
2015,03,16,13,30,10.60
2015,03,16,13,31,10.60
2015,03,16,13,32,10.60
2015,03,16,13,33,10.70
2015,03,16,13,34,10.80
2015,03,16,13,35,10.80
2015,03,16,13,36,10.90
2015,03,16,13,37,10.90
2015,03,16,13,38,10.90
2015,03,16,13,39,11.00
2015,03,16,13,40,11.00
2015,03,16,13,41,11.00
2015,03,16,13,42,11.00
2015,03,16,13,43,11.00
2015,03,16,13,44,11.00
2015,03,16,13,45,11.00
2015,03,16,13,46,11.00
2015,03,16,13,47,11.00
2015,03,16,13,48,10.90
2015,03,16,13,49,10.90
2015,03,16,13,50,10.90
2015,03,16,13,51,10.80
2015,03,16,13,52,10.80
2015,03,16,13,53,10.80
2015,03,16,13,54,10.80
2015,03,16,13,55,10.80
2015,03,16,13,56,10.80
2015,03,16,13,57,10.80
2015,03,16,13,58,10.80
2015,03,16,13,59,10.70
2015,03,16,14,00,10.70
2015,03,16,14,01,10.70
2015,03,16,14,02,10.70
2015,03,16,14,03,10.70
2015,03,16,14,04,10.70
2015,03,16,14,05,10.70
2015,03,16,14,06,10.70
2015,03,16,14,07,10.70
2015,03,16,14,08,10.70
2015,03,16,14,09,10.70
2015,03,16,14,10,10.70
2015,03,16,14,11,10.60
2015,03,16,14,12,10.50
2015,03,16,14,13,10.50
2015,03,16,14,14,10.40
2015,03,16,14,15,10.40
2015,03,16,14,16,10.40
2015,03,16,14,17,10.40
2015,03,16,14,18,10.40
2015,03,16,14,19,10.50
2015,03,16,14,20,10.50
2015,03,16,14,21,10.50
2015,03,16,14,22,10.40
2015,03,16,14,23,10.50
2015,03,16,14,24,10.40
2015,03,16,14,25,10.40
2015,03,16,14,26,10.30
2015,03,16,14,27,10.30
2015,03,16,14,28,10.30
2015,03,16,14,29,10.30
2015,03,16,14,30,10.30
2015,03,16,14,31,10.30
2015,03,16,14,32,10.40
2015,03,16,14,33,10.40
2015,03,16,14,34,10.40
2015,03,16,14,35,10.50
2015,03,16,14,36,10.60
2015,03,16,14,37,10.60
2015,03,16,14,38,10.70
2015,03,16,14,39,10.80
2015,03,16,14,40,10.80
2015,03,16,14,41,10.80
2015,03,16,14,42,10.80
2015,03,16,14,43,10.90
2015,03,16,14,44,10.80
2015,03,16,14,45,10.80
2015,03,16,14,46,10.80
2015,03,16,14,47,10.80
2015,03,16,14,48,10.90
2015,03,16,14,49,11.00
2015,03,16,14,50,11.00
2015,03,16,14,51,11.10
2015,03,16,14,52,11.10
2015,03,16,14,53,11.10
2015,03,16,14,54,11.20
2015,03,16,14,55,11.30
2015,03,16,14,56,11.30
2015,03,16,14,57,11.30
2015,03,16,14,58,11.40
2015,03,16,14,59,11.40
2015,03,16,15,00,11.50
2015,03,16,15,01,11.60
2015,03,16,15,02,11.70
2015,03,16,15,03,11.80
2015,03,16,15,04,11.80
2015,03,16,15,05,11.80
2015,03,16,15,06,11.80
2015,03,16,15,07,11.70
2015,03,16,15,08,11.70
2015,03,16,15,09,11.70
2015,03,16,15,10,11.70
2015,03,16,15,11,11.70
2015,03,16,15,12,11.80
2015,03,16,15,13,11.80
2015,03,16,15,14,11.70
2015,03,16,15,15,11.70
2015,03,16,15,16,11.70
2015,03,16,15,17,11.80
2015,03,16,15,18,11.90
2015,03,16,15,19,12.00
2015,03,16,15,20,12.20
2015,03,16,15,21,12.30
2015,03,16,15,22,12.40
2015,03,16,15,23,12.30
2015,03,16,15,24,12.30
2015,03,16,15,25,12.30
2015,03,16,15,26,12.30
2015,03,16,15,27,12.30
2015,03,16,15,28,12.30
2015,03,16,15,29,12.30
2015,03,16,15,30,12.20
2015,03,16,15,31,12.10
2015,03,16,15,32,12.00
2015,03,16,15,33,11.90
2015,03,16,15,34,11.80
2015,03,16,15,35,11.70
2015,03,16,15,36,11.70
2015,03,16,15,37,11.70
2015,03,16,15,38,11.80
2015,03,16,15,39,11.80
2015,03,16,15,40,11.80
2015,03,16,15,41,11.80
2015,03,16,15,42,11.80
2015,03,16,15,43,11.90
2015,03,16,15,44,11.90
2015,03,16,15,45,11.90
2015,03,16,15,46,11.90
2015,03,16,15,47,12.00
2015,03,16,15,48,12.00
2015,03,16,15,49,12.00
2015,03,16,15,50,12.00
2015,03,16,15,51,11.90
2015,03,16,15,52,11.90
2015,03,16,15,53,11.80
2015,03,16,15,54,11.80
2015,03,16,15,55,11.70
2015,03,16,15,56,11.60
2015,03,16,15,57,11.60
2015,03,16,15,58,11.60
2015,03,16,15,59,11.50
2015,03,16,16,00,11.50
2015,03,16,16,01,11.50
2015,03,16,16,02,11.50
2015,03,16,16,03,11.50
2015,03,16,16,04,11.50
2015,03,16,16,05,11.40
2015,03,16,16,06,11.40
2015,03,16,16,07,11.50
2015,03,16,16,08,11.50
2015,03,16,16,09,11.60
2015,03,16,16,10,11.60
2015,03,16,16,11,11.70
2015,03,16,16,12,11.80
2015,03,16,16,13,11.90
2015,03,16,16,14,11.90
2015,03,16,16,15,12.00
2015,03,16,16,16,12.00
2015,03,16,16,17,12.10
2015,03,16,16,18,12.10
2015,03,16,16,19,12.10
2015,03,16,16,20,12.00
2015,03,16,16,21,11.90
2015,03,16,16,22,11.90
2015,03,16,16,23,11.80
2015,03,16,16,24,11.80
2015,03,16,16,25,11.70
2015,03,16,16,26,11.60
2015,03,16,16,27,11.40
2015,03,16,16,28,11.30
2015,03,16,16,29,11.20
2015,03,16,16,30,11.10
2015,03,16,16,31,11.10
2015,03,16,16,32,11.10
2015,03,16,16,33,11.00
2015,03,16,16,34,11.00
2015,03,16,16,35,11.00
2015,03,16,16,36,11.00
2015,03,16,16,37,10.90
2015,03,16,16,38,10.80
2015,03,16,16,39,10.80
2015,03,16,16,40,10.80
2015,03,16,16,41,10.80
2015,03,16,16,42,10.80
2015,03,16,16,43,10.80
2015,03,16,16,44,10.90
2015,03,16,16,45,11.00
2015,03,16,16,46,11.10
2015,03,16,16,47,11.10
2015,03,16,16,48,11.10
2015,03,16,16,49,11.20
2015,03,16,16,50,11.20
2015,03,16,16,51,11.20
2015,03,16,16,52,11.20
2015,03,16,16,53,11.20
2015,03,16,16,54,11.30
2015,03,16,16,55,11.30
2015,03,16,16,56,11.30
2015,03,16,16,57,11.30
2015,03,16,16,58,11.30
2015,03,16,16,59,11.40
2015,03,16,17,00,11.40
2015,03,16,17,01,11.40
2015,03,16,17,02,11.40
2015,03,16,17,03,11.50
2015,03,16,17,04,11.60
2015,03,16,17,05,11.60
2015,03,16,17,06,11.60
2015,03,16,17,07,11.60
2015,03,16,17,08,11.60
2015,03,16,17,09,11.70
2015,03,16,17,10,11.70
2015,03,16,17,11,11.80
2015,03,16,17,12,11.80
2015,03,16,17,13,11.80
2015,03,16,17,14,11.80
2015,03,16,17,15,11.80
2015,03,16,17,16,11.80
2015,03,16,17,17,11.80
2015,03,16,17,18,11.80
2015,03,16,17,19,11.70
2015,03,16,17,20,11.70
2015,03,16,17,21,11.60
2015,03,16,17,22,11.60
2015,03,16,17,23,11.50
2015,03,16,17,24,11.50
2015,03,16,17,25,11.50
2015,03,16,17,26,11.40
2015,03,16,17,27,11.40
2015,03,16,17,28,11.40
2015,03,16,17,29,11.30
2015,03,16,17,30,11.30
2015,03,16,17,31,11.30
2015,03,16,17,32,11.30
2015,03,16,17,33,11.30
2015,03,16,17,34,11.20
2015,03,16,17,35,11.20
2015,03,16,17,36,11.20
2015,03,16,17,37,11.20
2015,03,16,17,38,11.10
2015,03,16,17,39,11.10
2015,03,16,17,40,11.10
2015,03,16,17,41,11.10
2015,03,16,17,42,11.10
2015,03,16,17,43,11.20
2015,03,16,17,44,11.20
2015,03,16,17,45,11.20
2015,03,16,17,46,11.20
2015,03,16,17,47,11.20
2015,03,16,17,48,11.20
2015,03,16,17,49,11.20
2015,03,16,17,50,11.20
2015,03,16,17,51,11.10